Time,TemperatureF,DewpointF,PressureIn,WindDirection,WindDirectionDegrees,WindSpeedMPH,WindSpeedGustMPH,Humidity,HourlyPrecipIn,Conditions,Clouds,dailyrainin,SoftwareType,DateUTC
2013-02-22 00:01:00,49.6,44.2,29.73,East,90,2.2,3.1,82,0.00,,,0.00,,2013-02-21 23:01:00,
2013-02-22 00:06:00,49.8,44.8,29.73,SE,135,2.6,5.3,83,0.00,,,0.00,,2013-02-21 23:06:00,
2013-02-22 00:11:00,49.8,44.8,29.73,East,90,2.6,4.0,83,0.00,,,0.00,,2013-02-21 23:11:00,
2013-02-22 00:16:00,50.0,45.0,29.70,SE,135,4.0,4.0,83,0.00,,,0.00,,2013-02-21 23:16:00,
2013-02-22 00:21:00,50.0,45.3,29.70,SE,135,2.2,3.1,84,0.00,,,0.00,,2013-02-21 23:21:00,
2013-02-22 00:26:00,50.0,45.3,29.70,SE,135,0.8,3.1,84,0.00,,,0.00,,2013-02-21 23:26:00,
2013-02-22 00:31:00,50.0,45.3,29.70,SE,135,3.5,3.5,84,0.00,,,0.00,,2013-02-21 23:31:00,
2013-02-22 00:36:00,50.0,45.3,29.70,SE,135,2.6,2.6,84,0.00,,,0.00,,2013-02-21 23:36:00,
2013-02-22 00:41:00,50.0,45.0,29.70,SE,135,2.2,0.0,83,0.00,,,0.00,,2013-02-21 23:41:00,
2013-02-22 00:46:00,50.0,45.0,29.73,SE,135,3.5,3.5,83,0.00,,,0.00,,2013-02-21 23:46:00,
2013-02-22 00:51:00,49.8,44.8,29.73,SE,135,3.1,4.4,83,0.00,,,0.00,,2013-02-21 23:51:00,
2013-02-22 00:56:00,49.8,45.1,29.70,SE,135,2.2,2.6,84,0.00,,,0.00,,2013-02-21 23:56:00,
2013-02-22 01:01:00,49.8,45.1,29.70,SE,135,1.7,2.6,84,0.00,,,0.00,,2013-02-22 00:01:00,
2013-02-22 01:06:00,49.8,45.1,29.73,SE,135,2.6,2.6,84,0.00,,,0.00,,2013-02-22 00:06:00,
2013-02-22 01:11:00,49.8,45.1,29.73,SE,135,2.2,3.5,84,0.00,,,0.00,,2013-02-22 00:11:00,
2013-02-22 01:16:00,49.6,45.0,29.73,SE,135,1.7,2.6,84,0.00,,,0.00,,2013-02-22 00:16:00,
2013-02-22 01:21:00,49.8,45.1,29.73,SE,135,1.3,1.7,84,0.00,,,0.00,,2013-02-22 00:21:00,
2013-02-22 01:26:00,49.8,45.1,29.70,SE,135,0.4,2.2,84,0.00,,,0.00,,2013-02-22 00:26:00,
2013-02-22 01:31:00,49.8,45.1,29.70,SE,135,2.2,2.2,84,0.00,,,0.00,,2013-02-22 00:31:00,
2013-02-22 01:36:00,49.8,45.3,29.70,East,90,2.2,3.5,85,0.00,,,0.00,,2013-02-22 00:36:00,
2013-02-22 01:41:00,49.8,45.3,29.70,SE,135,2.2,4.4,85,0.00,,,0.00,,2013-02-22 00:41:00,
2013-02-22 01:46:00,49.6,45.1,29.70,SE,135,2.6,4.0,85,0.00,,,0.00,,2013-02-22 00:46:00,
2013-02-22 01:51:00,49.6,45.1,29.70,SE,135,2.2,2.2,85,0.00,,,0.00,,2013-02-22 00:51:00,
2013-02-22 01:56:00,49.6,45.1,29.70,SE,135,1.7,3.5,85,0.00,,,0.00,,2013-02-22 00:56:00,
2013-02-22 02:01:00,49.5,45.0,29.70,East,90,3.5,5.3,85,0.00,,,0.00,,2013-02-22 01:01:00,
2013-02-22 02:06:00,49.5,45.3,29.67,East,90,4.4,4.9,86,0.00,,,0.00,,2013-02-22 01:06:00,
2013-02-22 02:11:00,49.3,45.1,29.67,East,90,3.5,4.4,86,0.00,,,0.00,,2013-02-22 01:11:00,
2013-02-22 02:16:00,49.1,45.0,29.70,East,90,3.5,3.5,86,0.00,,,0.00,,2013-02-22 01:16:00,
2013-02-22 02:21:00,49.1,45.0,29.70,East,90,1.7,1.7,86,0.00,,,0.00,,2013-02-22 01:21:00,
2013-02-22 02:26:00,48.9,44.8,29.70,East,90,3.1,3.5,86,0.00,,,0.00,,2013-02-22 01:26:00,
2013-02-22 02:31:00,48.9,44.8,29.70,SE,135,2.6,2.6,86,0.00,,,0.00,,2013-02-22 01:31:00,
2013-02-22 02:41:00,48.9,44.8,29.70,SE,135,2.6,5.3,86,0.00,,,0.00,,2013-02-22 01:41:00,
2013-02-22 02:46:00,48.9,44.8,29.70,East,90,2.6,2.6,86,0.00,,,0.00,,2013-02-22 01:46:00,
2013-02-22 02:51:00,48.9,44.8,29.70,East,90,3.5,3.5,86,0.00,,,0.00,,2013-02-22 01:51:00,
2013-02-22 02:56:00,48.9,45.1,29.70,East,90,3.1,3.1,87,0.00,,,0.00,,2013-02-22 01:56:00,
2013-02-22 03:01:00,48.9,45.1,29.70,East,90,1.7,3.1,87,0.00,,,0.00,,2013-02-22 02:01:00,
2013-02-22 03:06:00,48.9,45.1,29.70,SE,135,2.2,3.1,87,0.00,,,0.00,,2013-02-22 02:06:00,
2013-02-22 03:11:00,48.9,45.1,29.70,SE,135,1.7,3.5,87,0.00,,,0.00,,2013-02-22 02:11:00,
2013-02-22 03:16:00,48.9,45.1,29.67,SE,135,3.1,4.4,87,0.00,,,0.00,,2013-02-22 02:16:00,
2013-02-22 03:21:00,48.9,45.1,29.67,SE,135,2.2,2.2,87,0.00,,,0.00,,2013-02-22 02:21:00,
2013-02-22 03:26:00,48.9,45.1,29.67,ESE,112,2.2,3.1,87,0.00,,,0.00,,2013-02-22 02:26:00,
2013-02-22 03:31:00,49.1,45.3,29.67,SE,135,2.6,5.8,87,0.00,,,0.00,,2013-02-22 02:31:00,
2013-02-22 03:36:00,49.1,45.3,29.67,SE,135,2.6,2.6,87,0.00,,,0.00,,2013-02-22 02:36:00,
2013-02-22 03:41:00,49.1,45.3,29.67,East,90,3.1,3.1,87,0.00,,,0.00,,2013-02-22 02:41:00,
2013-02-22 03:46:00,49.1,45.3,29.67,SE,135,1.7,1.7,87,0.00,,,0.00,,2013-02-22 02:46:00,
2013-02-22 03:51:00,49.1,45.3,29.67,SE,135,1.7,1.7,87,0.00,,,0.00,,2013-02-22 02:51:00,
2013-02-22 03:56:00,49.3,45.5,29.67,SE,135,3.5,3.5,87,0.00,,,0.00,,2013-02-22 02:56:00,
2013-02-22 04:01:00,49.3,45.5,29.67,SE,135,2.2,4.9,87,0.00,,,0.00,,2013-02-22 03:01:00,
2013-02-22 04:06:00,49.3,45.5,29.67,SE,135,2.6,4.9,87,0.00,,,0.00,,2013-02-22 03:06:00,
2013-02-22 04:11:00,49.3,45.5,29.67,SE,135,3.1,3.1,87,0.00,,,0.00,,2013-02-22 03:11:00,
2013-02-22 04:16:00,49.3,45.5,29.67,SE,135,3.1,3.1,87,0.00,,,0.00,,2013-02-22 03:16:00,
2013-02-22 04:21:00,49.3,45.5,29.67,SE,135,2.6,4.4,87,0.00,,,0.00,,2013-02-22 03:21:00,
2013-02-22 04:26:00,49.3,45.5,29.67,SE,135,3.1,4.4,87,0.00,,,0.00,,2013-02-22 03:26:00,
2013-02-22 04:31:00,49.3,45.5,29.67,SE,135,2.2,2.2,87,0.00,,,0.00,,2013-02-22 03:31:00,
2013-02-22 04:36:00,49.3,45.5,29.67,SE,135,2.6,3.5,87,0.00,,,0.00,,2013-02-22 03:36:00,
2013-02-22 04:41:00,49.3,45.5,29.67,SE,135,3.1,5.8,87,0.00,,,0.00,,2013-02-22 03:41:00,
2013-02-22 04:46:00,49.3,45.5,29.70,SE,135,3.5,5.8,87,0.00,,,0.00,,2013-02-22 03:46:00,
2013-02-22 04:51:00,49.1,45.3,29.70,SE,135,3.1,3.5,87,0.00,,,0.00,,2013-02-22 03:51:00,
2013-02-22 04:56:00,49.1,45.3,29.67,SE,135,3.5,4.4,87,0.00,,,0.00,,2013-02-22 03:56:00,
2013-02-22 05:01:00,49.3,45.5,29.67,SE,135,4.0,4.4,87,0.00,,,0.00,,2013-02-22 04:01:00,
2013-02-22 05:06:00,49.3,45.5,29.64,SE,135,2.2,3.5,87,0.00,,,0.00,,2013-02-22 04:06:00,
2013-02-22 05:11:00,49.1,45.3,29.64,SE,135,2.6,3.5,87,0.00,,,0.00,,2013-02-22 04:11:00,
2013-02-22 05:16:00,49.1,45.3,29.70,SE,135,2.6,3.5,87,0.00,,,0.00,,2013-02-22 04:16:00,
2013-02-22 05:21:00,49.1,45.3,29.70,SE,135,3.5,3.5,87,0.00,,,0.00,,2013-02-22 04:21:00,
2013-02-22 05:26:00,49.1,45.3,29.70,SE,135,3.1,4.4,87,0.00,,,0.00,,2013-02-22 04:26:00,
2013-02-22 05:31:00,48.9,45.1,29.70,SE,135,2.6,3.1,87,0.00,,,0.00,,2013-02-22 04:31:00,
2013-02-22 05:36:00,48.9,45.1,29.70,SE,135,2.2,2.6,87,0.00,,,0.00,,2013-02-22 04:36:00,
2013-02-22 05:41:00,48.9,45.1,29.70,SE,135,2.2,2.2,87,0.00,,,0.00,,2013-02-22 04:41:00,
2013-02-22 05:46:00,48.9,45.1,29.67,SE,135,2.2,2.2,87,0.00,,,0.00,,2013-02-22 04:46:00,
2013-02-22 05:51:00,48.9,45.1,29.67,SE,135,2.6,3.1,87,0.00,,,0.00,,2013-02-22 04:51:00,
2013-02-22 05:56:00,48.9,45.1,29.67,SE,135,1.3,1.7,87,0.00,,,0.00,,2013-02-22 04:56:00,
2013-02-22 06:01:00,48.9,44.8,29.67,East,90,2.2,3.5,86,0.00,,,0.00,,2013-02-22 05:01:00,
2013-02-22 06:06:00,48.9,44.8,29.67,East,90,3.5,3.5,86,0.00,,,0.00,,2013-02-22 05:06:00,
2013-02-22 06:11:00,48.9,44.8,29.67,East,90,3.1,3.1,86,0.00,,,0.00,,2013-02-22 05:11:00,
2013-02-22 06:16:00,48.7,44.6,29.70,East,90,3.1,3.1,86,0.00,,,0.00,,2013-02-22 05:16:00,
2013-02-22 06:21:00,48.7,44.6,29.70,East,90,1.3,3.1,86,0.00,,,0.00,,2013-02-22 05:21:00,
2013-02-22 06:26:00,48.7,44.6,29.67,East,90,2.2,4.0,86,0.00,,,0.00,,2013-02-22 05:26:00,
2013-02-22 06:31:00,48.6,44.4,29.67,East,90,2.2,4.0,86,0.00,,,0.00,,2013-02-22 05:31:00,
2013-02-22 06:36:00,48.6,44.4,29.70,East,90,2.6,4.0,86,0.00,,,0.00,,2013-02-22 05:36:00,
2013-02-22 06:41:00,48.4,44.2,29.70,East,90,2.6,4.0,86,0.00,,,0.00,,2013-02-22 05:41:00,
2013-02-22 06:46:00,48.4,44.2,29.70,East,90,2.6,4.0,86,0.00,,,0.00,,2013-02-22 05:46:00,
2013-02-22 06:51:00,48.4,44.2,29.70,North,0,0.0,0.0,86,0.00,,,0.00,,2013-02-22 05:51:00,
2013-02-22 06:56:00,48.4,44.2,29.67,North,0,0.0,0.0,86,0.00,,,0.00,,2013-02-22 05:56:00,
2013-02-22 07:01:00,48.2,44.1,29.67,SE,135,3.1,3.5,86,0.00,,,0.00,,2013-02-22 06:01:00,
2013-02-22 07:06:00,48.2,44.1,29.70,SE,135,1.7,2.6,86,0.00,,,0.00,,2013-02-22 06:06:00,
2013-02-22 07:11:00,48.2,44.1,29.70,SE,135,2.2,4.9,86,0.00,,,0.00,,2013-02-22 06:11:00,
2013-02-22 07:16:00,48.2,44.1,29.70,SE,135,2.2,2.2,86,0.00,,,0.00,,2013-02-22 06:16:00,
2013-02-22 07:21:00,48.4,44.2,29.70,SE,135,1.7,1.7,86,0.00,,,0.00,,2013-02-22 06:21:00,
2013-02-22 07:26:00,48.4,44.2,29.70,SE,135,1.7,2.2,86,0.00,,,0.00,,2013-02-22 06:26:00,
2013-02-22 07:31:00,48.4,44.2,29.70,SE,135,1.7,2.2,86,0.00,,,0.00,,2013-02-22 06:31:00,
2013-02-22 07:36:00,48.6,44.4,29.70,SE,135,2.2,3.1,86,0.00,,,0.00,,2013-02-22 06:36:00,
2013-02-22 07:41:00,48.6,44.4,29.70,East,90,2.2,4.0,86,0.00,,,0.00,,2013-02-22 06:41:00,
2013-02-22 07:46:00,48.7,44.6,29.67,SE,135,2.2,2.2,86,0.00,,,0.00,,2013-02-22 06:46:00,
2013-02-22 07:51:00,48.6,44.2,29.67,NW,315,1.7,0.0,85,0.00,,,0.00,,2013-02-22 06:51:00,
2013-02-22 07:56:00,48.2,43.9,29.70,NW,315,0.4,0.0,85,0.00,,,0.00,,2013-02-22 06:56:00,
2013-02-22 08:01:00,48.7,44.6,29.70,SE,135,1.3,2.2,86,0.00,,,0.00,,2013-02-22 07:01:00,
2013-02-22 08:06:00,48.9,44.8,29.70,SE,135,1.3,2.2,86,0.00,,,0.00,,2013-02-22 07:06:00,
2013-02-22 08:11:00,49.3,44.8,29.70,SE,135,1.3,2.2,85,0.00,,,0.00,,2013-02-22 07:11:00,
2013-02-22 08:16:00,49.3,44.8,29.67,SE,135,0.8,2.2,85,0.00,,,0.00,,2013-02-22 07:16:00,
2013-02-22 08:21:00,49.5,45.0,29.67,SE,135,0.8,2.2,85,0.00,,,0.00,,2013-02-22 07:21:00,
2013-02-22 08:26:00,49.6,45.1,29.70,SE,135,0.8,2.2,85,0.00,,,0.00,,2013-02-22 07:26:00,
2013-02-22 08:31:00,50.2,45.7,29.70,SE,135,2.2,2.2,85,0.00,,,0.00,,2013-02-22 07:31:00,
2013-02-22 08:36:00,50.7,46.2,29.67,SE,135,0.8,1.7,85,0.00,,,0.00,,2013-02-22 07:36:00,
2013-02-22 08:41:00,50.7,46.2,29.67,East,90,3.5,3.5,85,0.00,,,0.00,,2013-02-22 07:41:00,
2013-02-22 08:46:00,51.1,46.6,29.70,East,90,2.2,3.1,85,0.00,,,0.00,,2013-02-22 07:46:00,
2013-02-22 08:51:00,51.8,47.3,29.70,SE,135,0.4,0.0,85,0.00,,,0.00,,2013-02-22 07:51:00,
2013-02-22 08:56:00,52.3,47.5,29.70,East,90,0.8,1.3,84,0.00,,,0.00,,2013-02-22 07:56:00,
2013-02-22 09:01:00,52.3,47.3,29.70,SE,135,1.7,7.6,83,0.00,,,0.00,,2013-02-22 08:01:00,
2013-02-22 09:06:00,52.0,46.6,29.70,SE,135,3.1,5.3,82,0.00,,,0.00,,2013-02-22 08:06:00,
2013-02-22 09:11:00,51.8,46.4,29.70,East,90,3.5,3.5,82,0.00,,,0.00,,2013-02-22 08:11:00,
2013-02-22 09:16:00,51.8,46.4,29.67,SE,135,0.4,4.4,82,0.00,,,0.00,,2013-02-22 08:16:00,
2013-02-22 09:21:00,51.8,46.4,29.67,East,90,2.6,2.6,82,0.00,,,0.00,,2013-02-22 08:21:00,
2013-02-22 09:26:00,51.8,46.4,29.67,SE,135,3.1,3.1,82,0.00,,,0.00,,2013-02-22 08:26:00,
2013-02-22 09:31:00,52.0,46.6,29.67,SE,135,3.1,5.8,82,0.00,,,0.00,,2013-02-22 08:31:00,
2013-02-22 09:36:00,52.2,47.1,29.67,East,90,2.2,2.2,83,0.00,,,0.00,,2013-02-22 08:36:00,
2013-02-22 09:41:00,52.3,47.3,29.67,East,90,0.8,0.8,83,0.00,,,0.00,,2013-02-22 08:41:00,
2013-02-22 09:46:00,52.5,47.5,29.67,East,90,2.6,2.6,83,0.00,,,0.00,,2013-02-22 08:46:00,
2013-02-22 09:51:00,52.9,47.8,29.67,East,90,3.1,3.1,83,0.00,,,0.00,,2013-02-22 08:51:00,
2013-02-22 09:56:00,53.4,48.4,29.64,East,90,2.6,2.6,83,0.00,,,0.00,,2013-02-22 08:56:00,
2013-02-22 10:01:00,53.8,48.4,29.64,East,90,3.1,3.1,82,0.00,,,0.00,,2013-02-22 09:01:00,
2013-02-22 10:06:00,54.1,48.7,29.64,SE,135,2.2,2.2,82,0.00,,,0.00,,2013-02-22 09:06:00,
2013-02-22 10:11:00,54.1,48.4,29.64,SE,135,2.2,2.2,81,0.00,,,0.00,,2013-02-22 09:11:00,
2013-02-22 10:16:00,54.1,48.4,29.64,SE,135,2.2,2.2,81,0.00,,,0.00,,2013-02-22 09:16:00,
2013-02-22 10:26:00,53.4,47.3,29.67,SE,135,2.2,9.8,80,0.03,,,0.03,,2013-02-22 09:26:00,
2013-02-22 10:31:00,53.1,47.3,29.67,SE,135,6.2,8.9,81,0.03,,,0.03,,2013-02-22 09:31:00,
2013-02-22 10:36:00,53.1,47.3,29.67,SE,135,5.8,8.9,81,0.03,,,0.03,,2013-02-22 09:36:00,
2013-02-22 10:41:00,53.1,47.3,29.67,SE,135,4.4,4.9,81,0.03,,,0.03,,2013-02-22 09:41:00,
2013-02-22 10:46:00,53.6,47.8,29.67,East,90,5.3,5.3,81,0.03,,,0.03,,2013-02-22 09:46:00,
2013-02-22 10:51:00,53.8,47.7,29.67,East,90,7.6,7.6,80,0.03,,,0.03,,2013-02-22 09:51:00,
2013-02-22 10:56:00,53.8,47.7,29.67,SE,135,6.2,0.0,80,0.03,,,0.03,,2013-02-22 09:56:00,
2013-02-22 11:01:00,53.8,47.7,29.67,SE,135,5.3,11.1,80,0.00,,,0.03,,2013-02-22 10:01:00,
2013-02-22 11:06:00,53.6,47.5,29.64,SE,135,5.3,10.2,80,0.00,,,0.03,,2013-02-22 10:06:00,
2013-02-22 11:11:00,53.6,47.8,29.64,SE,135,6.2,10.2,81,0.00,,,0.03,,2013-02-22 10:11:00,
2013-02-22 11:16:00,53.4,47.7,29.67,SE,135,6.2,6.2,81,0.00,,,0.03,,2013-02-22 10:16:00,
2013-02-22 11:21:00,53.2,47.1,29.67,SE,135,8.0,8.0,80,0.00,,,0.03,,2013-02-22 10:21:00,
2013-02-22 11:26:00,53.1,46.9,29.67,SE,135,8.0,8.0,80,0.00,,,0.03,,2013-02-22 10:26:00,
2013-02-22 11:31:00,53.1,47.3,29.67,SE,135,8.0,8.0,81,0.00,,,0.03,,2013-02-22 10:31:00,
2013-02-22 11:36:00,53.1,46.9,29.64,North,0,0.0,0.0,80,0.00,,,0.03,,2013-02-22 10:36:00,
2013-02-22 11:41:00,53.1,47.3,29.64,North,0,0.0,0.0,81,0.00,,,0.03,,2013-02-22 10:41:00,
2013-02-22 11:46:00,53.1,46.9,29.64,North,0,0.0,0.0,80,0.00,,,0.03,,2013-02-22 10:46:00,
2013-02-22 11:51:00,53.2,47.1,29.64,SE,135,8.0,8.0,80,0.00,,,0.03,,2013-02-22 10:51:00,
2013-02-22 11:56:00,53.2,47.1,29.64,SE,135,2.2,2.2,80,0.00,,,0.03,,2013-02-22 10:56:00,
2013-02-22 12:01:00,53.2,46.8,29.64,SE,135,7.1,7.6,79,0.00,,,0.03,,2013-02-22 11:01:00,
2013-02-22 12:06:00,53.4,46.6,29.64,East,90,5.3,9.3,78,0.00,,,0.03,,2013-02-22 11:06:00,
2013-02-22 12:16:00,54.0,47.5,29.64,SE,135,4.9,4.9,79,0.00,,,0.03,,2013-02-22 11:16:00,
2013-02-22 12:21:00,54.1,47.7,29.64,SE,135,7.1,7.1,79,0.00,,,0.03,,2013-02-22 11:21:00,
2013-02-22 12:26:00,54.3,47.8,29.61,SE,135,4.9,4.9,79,0.00,,,0.03,,2013-02-22 11:26:00,
2013-02-22 12:31:00,54.7,48.2,29.61,SE,135,8.9,8.9,79,0.00,,,0.03,,2013-02-22 11:31:00,
2013-02-22 12:36:00,54.3,47.5,29.61,SE,135,8.9,10.2,78,0.00,,,0.03,,2013-02-22 11:36:00,
2013-02-22 12:41:00,54.1,46.9,29.61,SE,135,6.2,6.2,77,0.00,,,0.03,,2013-02-22 11:41:00,
2013-02-22 12:46:00,54.3,47.5,29.61,SE,135,4.0,9.8,78,0.00,,,0.03,,2013-02-22 11:46:00,
2013-02-22 12:51:00,54.3,47.5,29.61,NE,45,7.6,12.5,78,0.00,,,0.03,,2013-02-22 11:51:00,
2013-02-22 12:56:00,54.3,47.5,29.58,SE,135,7.6,7.6,78,0.00,,,0.03,,2013-02-22 11:56:00,
2013-02-22 13:01:00,54.1,47.3,29.58,East,90,6.2,8.9,78,0.00,,,0.03,,2013-02-22 12:01:00,
2013-02-22 13:06:00,54.1,47.3,29.58,ESE,112,4.9,6.2,78,0.00,,,0.03,,2013-02-22 12:06:00,
2013-02-22 13:11:00,54.0,47.1,29.58,ESE,112,7.1,7.1,78,0.00,,,0.03,,2013-02-22 12:11:00,
2013-02-22 13:16:00,54.0,46.8,29.58,SE,135,5.3,5.3,77,0.00,,,0.03,,2013-02-22 12:16:00,
2013-02-22 13:21:00,54.0,46.8,29.58,SE,135,5.8,5.8,77,0.00,,,0.03,,2013-02-22 12:21:00,
2013-02-22 13:26:00,54.0,46.8,29.58,SE,135,4.4,5.8,77,0.00,,,0.03,,2013-02-22 12:26:00,
2013-02-22 13:31:00,54.0,46.8,29.58,ESE,112,3.5,8.5,77,0.00,,,0.03,,2013-02-22 12:31:00,
2013-02-22 13:36:00,54.0,46.8,29.58,SE,135,4.0,5.8,77,0.00,,,0.03,,2013-02-22 12:36:00,
2013-02-22 13:41:00,54.0,46.8,29.58,SE,135,4.9,5.8,77,0.00,,,0.03,,2013-02-22 12:41:00,
2013-02-22 13:46:00,53.8,46.6,29.55,SE,135,4.9,5.8,77,0.00,,,0.03,,2013-02-22 12:46:00,
2013-02-22 13:51:00,53.8,46.6,29.55,SE,135,4.9,5.8,77,0.00,,,0.03,,2013-02-22 12:51:00,
2013-02-22 13:56:00,53.8,46.2,29.55,SE,135,4.9,5.8,76,0.00,,,0.03,,2013-02-22 12:56:00,
2013-02-22 14:01:00,53.8,45.9,29.55,North,0,0.0,0.0,75,0.00,,,0.03,,2013-02-22 13:01:00,
2013-02-22 14:06:00,53.8,45.9,29.55,North,0,0.0,0.0,75,0.00,,,0.03,,2013-02-22 13:06:00,
2013-02-22 14:11:00,54.1,46.2,29.55,North,0,0.0,0.0,75,0.00,,,0.03,,2013-02-22 13:11:00,
2013-02-22 14:16:00,54.1,45.9,29.55,North,0,0.0,0.0,74,0.00,,,0.03,,2013-02-22 13:16:00,
2013-02-22 14:21:00,54.3,46.0,29.55,SE,135,4.9,5.3,74,0.00,,,0.03,,2013-02-22 13:21:00,
2013-02-22 14:31:00,54.5,45.9,29.55,North,0,8.0,63.5,73,0.00,,,0.03,,2013-02-22 13:31:00,
2013-02-22 14:36:00,54.5,45.9,29.55,SE,135,6.2,14.7,73,0.00,,,0.03,,2013-02-22 13:36:00,
2013-02-22 14:41:00,54.9,46.2,29.55,SE,135,6.2,14.7,73,0.00,,,0.03,,2013-02-22 13:41:00,
2013-02-22 14:46:00,54.9,46.2,29.55,SE,135,7.6,14.7,73,0.00,,,0.03,,2013-02-22 13:46:00,
2013-02-22 14:51:00,55.2,46.6,29.55,SE,135,8.5,18.7,73,0.00,,,0.03,,2013-02-22 13:51:00,
2013-02-22 14:56:00,55.8,47.1,29.55,West,270,5.8,19.6,73,0.00,,,0.03,,2013-02-22 13:56:00,
2013-02-22 15:06:00,55.8,47.1,29.53,East,90,8.0,10.2,73,0.00,,,0.03,,2013-02-22 14:06:00,
2013-02-22 15:11:00,55.8,47.5,29.53,ESE,112,12.0,12.0,74,0.00,,,0.03,,2013-02-22 14:11:00,
2013-02-22 15:16:00,55.8,47.5,29.55,East,90,12.0,17.8,74,0.00,,,0.03,,2013-02-22 14:16:00,
2013-02-22 15:21:00,55.8,47.5,29.55,East,90,12.0,17.8,74,0.00,,,0.03,,2013-02-22 14:21:00,
2013-02-22 15:26:00,55.8,47.5,29.53,East,90,12.0,17.8,74,0.00,,,0.03,,2013-02-22 14:26:00,
2013-02-22 15:31:00,55.8,47.5,29.53,North,0,0.0,0.0,74,0.00,,,0.03,,2013-02-22 14:31:00,
2013-02-22 15:36:00,55.8,47.8,29.50,North,0,0.0,0.0,75,0.00,,,0.03,,2013-02-22 14:36:00,
2013-02-22 15:41:00,55.8,47.8,29.50,North,0,0.0,0.0,75,0.00,,,0.03,,2013-02-22 14:41:00,
2013-02-22 15:46:00,55.8,47.5,29.53,North,0,0.0,0.0,74,0.00,,,0.03,,2013-02-22 14:46:00,
2013-02-22 15:51:00,55.8,47.5,29.53,North,0,0.0,0.0,74,0.00,,,0.03,,2013-02-22 14:51:00,
2013-02-22 15:56:00,55.8,47.5,29.53,North,0,0.0,0.0,74,0.00,,,0.03,,2013-02-22 14:56:00,
2013-02-22 16:01:00,55.6,47.7,29.53,North,0,0.0,0.0,75,0.00,,,0.03,,2013-02-22 15:01:00,
2013-02-22 16:06:00,55.6,47.7,29.53,North,0,0.0,0.0,75,0.00,,,0.03,,2013-02-22 15:06:00,
2013-02-22 16:11:00,55.6,47.7,29.53,North,0,0.0,0.0,75,0.00,,,0.03,,2013-02-22 15:11:00,
2013-02-22 16:16:00,55.4,47.8,29.53,North,0,0.0,0.0,76,0.00,,,0.03,,2013-02-22 15:16:00,
2013-02-22 16:21:00,55.4,47.8,29.53,North,0,0.0,0.0,76,0.00,,,0.03,,2013-02-22 15:21:00,
2013-02-22 16:26:00,55.4,47.8,29.53,North,0,0.0,0.0,76,0.00,,,0.03,,2013-02-22 15:26:00,
2013-02-22 16:31:00,55.4,48.2,29.53,North,0,0.0,0.0,77,0.00,,,0.03,,2013-02-22 15:31:00,
2013-02-22 16:36:00,55.4,48.2,29.53,North,0,0.0,0.0,77,0.00,,,0.03,,2013-02-22 15:36:00,
2013-02-22 16:41:00,55.4,48.2,29.53,North,0,0.0,0.0,77,0.00,,,0.03,,2013-02-22 15:41:00,
2013-02-22 16:46:00,55.2,48.0,29.53,North,0,0.0,0.0,77,0.00,,,0.03,,2013-02-22 15:46:00,
2013-02-22 16:51:00,55.2,48.0,29.53,North,0,0.0,0.0,77,0.00,,,0.03,,2013-02-22 15:51:00,
2013-02-22 16:56:00,55.2,48.0,29.53,North,0,0.0,0.0,77,0.00,,,0.03,,2013-02-22 15:56:00,
2013-02-22 17:01:00,55.2,48.0,29.53,North,0,0.0,0.0,77,0.00,,,0.03,,2013-02-22 16:01:00,
2013-02-22 17:06:00,55.2,48.4,29.53,North,0,0.0,0.0,78,0.00,,,0.03,,2013-02-22 16:06:00,
2013-02-22 17:11:00,55.0,48.2,29.53,North,0,0.0,0.0,78,0.00,,,0.03,,2013-02-22 16:11:00,
2013-02-22 17:16:00,55.0,48.2,29.53,North,0,0.0,0.0,78,0.00,,,0.03,,2013-02-22 16:16:00,
2013-02-22 17:21:00,54.7,48.2,29.53,North,0,0.0,0.0,79,0.00,,,0.03,,2013-02-22 16:21:00,
2013-02-22 17:26:00,54.5,48.4,29.50,North,0,0.0,0.0,80,0.00,,,0.03,,2013-02-22 16:26:00,
2013-02-22 17:31:00,54.3,48.6,29.50,North,0,0.0,0.0,81,0.00,,,0.03,,2013-02-22 16:31:00,
2013-02-22 17:36:00,54.1,48.4,29.50,North,0,0.0,0.0,81,0.00,,,0.03,,2013-02-22 16:36:00,
2013-02-22 17:41:00,54.1,48.7,29.50,North,0,0.0,0.0,82,0.00,,,0.03,,2013-02-22 16:41:00,
2013-02-22 17:46:00,54.1,48.7,29.53,North,0,0.0,0.0,82,0.00,,,0.03,,2013-02-22 16:46:00,
2013-02-22 17:51:00,54.1,48.7,29.53,North,0,0.0,0.0,82,0.00,,,0.03,,2013-02-22 16:51:00,
2013-02-22 17:56:00,54.1,48.7,29.50,East,90,5.3,9.3,82,0.00,,,0.03,,2013-02-22 16:56:00,
2013-02-22 18:01:00,54.1,48.7,29.50,ESE,112,5.3,5.3,82,0.00,,,0.03,,2013-02-22 17:01:00,
2013-02-22 18:06:00,54.1,48.7,29.50,SE,135,5.3,5.3,82,0.00,,,0.03,,2013-02-22 17:06:00,
2013-02-22 18:11:00,54.3,48.9,29.50,SE,135,5.3,5.3,82,0.00,,,0.03,,2013-02-22 17:11:00,
2013-02-22 18:16:00,54.3,48.9,29.50,North,0,0.0,0.0,82,0.00,,,0.03,,2013-02-22 17:16:00,
2013-02-22 18:21:00,54.3,48.6,29.50,North,0,0.0,0.0,81,0.00,,,0.03,,2013-02-22 17:21:00,
2013-02-22 18:26:00,54.3,48.6,29.53,North,0,0.0,0.0,81,0.00,,,0.03,,2013-02-22 17:26:00,
2013-02-22 18:31:00,54.5,48.7,29.53,North,0,0.0,0.0,81,0.00,,,0.03,,2013-02-22 17:31:00,
2013-02-22 18:36:00,54.3,48.6,29.53,North,0,0.0,0.0,81,0.00,,,0.03,,2013-02-22 17:36:00,
2013-02-22 18:41:00,54.3,48.6,29.53,North,0,0.0,0.0,81,0.00,,,0.03,,2013-02-22 17:41:00,
2013-02-22 18:46:00,54.3,48.9,29.53,North,0,0.0,0.0,82,0.00,,,0.03,,2013-02-22 17:46:00,
2013-02-22 18:51:00,54.5,49.1,29.53,North,0,0.0,0.0,82,0.00,,,0.03,,2013-02-22 17:51:00,
2013-02-22 18:56:00,54.5,49.1,29.53,North,0,0.0,0.0,82,0.00,,,0.03,,2013-02-22 17:56:00,
2013-02-22 19:01:00,54.5,49.1,29.53,North,0,0.0,0.0,82,0.00,,,0.03,,2013-02-22 18:01:00,
2013-02-22 19:06:00,54.5,49.1,29.53,North,0,0.0,0.0,82,0.00,,,0.03,,2013-02-22 18:06:00,
2013-02-22 19:11:00,54.3,48.9,29.53,North,0,0.0,0.0,82,0.00,,,0.03,,2013-02-22 18:11:00,
2013-02-22 19:16:00,54.3,48.9,29.53,North,0,0.0,0.0,82,0.00,,,0.03,,2013-02-22 18:16:00,
2013-02-22 19:21:00,54.3,48.9,29.53,North,0,0.0,0.0,82,0.00,,,0.03,,2013-02-22 18:21:00,
2013-02-22 19:26:00,54.3,48.9,29.53,North,0,0.0,0.0,82,0.00,,,0.03,,2013-02-22 18:26:00,
2013-02-22 19:31:00,54.1,48.7,29.53,North,0,0.0,0.0,82,0.00,,,0.03,,2013-02-22 18:31:00,
2013-02-22 19:36:00,54.1,48.9,29.53,North,0,0.0,0.0,83,0.00,,,0.03,,2013-02-22 18:36:00,
2013-02-22 19:41:00,54.1,48.9,29.53,North,0,0.0,0.0,83,0.00,,,0.03,,2013-02-22 18:41:00,
2013-02-22 19:46:00,54.1,48.9,29.53,North,0,0.0,0.0,83,0.00,,,0.03,,2013-02-22 18:46:00,
2013-02-22 19:51:00,54.1,48.9,29.53,North,0,0.0,0.0,83,0.00,,,0.03,,2013-02-22 18:51:00,
2013-02-22 19:56:00,54.1,48.9,29.50,North,0,0.0,0.0,83,0.00,,,0.03,,2013-02-22 18:56:00,
2013-02-22 20:01:00,54.1,48.9,29.50,North,0,0.0,0.0,83,0.00,,,0.03,,2013-02-22 19:01:00,
2013-02-22 20:06:00,54.1,48.9,29.53,North,0,0.0,0.0,83,0.00,,,0.03,,2013-02-22 19:06:00,
2013-02-22 20:11:00,53.8,49.3,29.53,North,0,0.0,0.0,85,0.00,,,0.03,,2013-02-22 19:11:00,
2013-02-22 20:16:00,53.8,49.3,29.53,North,0,0.0,0.0,85,0.00,,,0.03,,2013-02-22 19:16:00,
2013-02-22 20:21:00,53.8,49.3,29.53,North,0,0.0,0.0,85,0.00,,,0.03,,2013-02-22 19:21:00,
2013-02-22 20:26:00,53.8,49.3,29.53,North,0,0.0,0.0,85,0.00,,,0.03,,2013-02-22 19:26:00,
2013-02-22 20:31:00,53.8,49.3,29.53,North,0,0.0,0.0,85,0.00,,,0.03,,2013-02-22 19:31:00,
2013-02-22 20:36:00,53.8,49.3,29.53,North,0,0.0,0.0,85,0.00,,,0.03,,2013-02-22 19:36:00,
2013-02-22 20:41:00,53.8,49.3,29.53,North,0,0.0,0.0,85,0.00,,,0.03,,2013-02-22 19:41:00,
2013-02-22 20:46:00,53.8,49.3,29.50,North,0,0.0,0.0,85,0.00,,,0.03,,2013-02-22 19:46:00,
2013-02-22 20:51:00,53.8,49.3,29.50,North,0,0.0,0.0,85,0.00,,,0.03,,2013-02-22 19:51:00,
2013-02-22 20:56:00,53.8,49.3,29.53,North,0,0.0,0.0,85,0.00,,,0.03,,2013-02-22 19:56:00,
2013-02-22 21:01:00,53.8,49.3,29.53,North,0,0.0,0.0,85,0.00,,,0.03,,2013-02-22 20:01:00,
2013-02-22 21:06:00,53.8,49.3,29.53,North,0,0.0,0.0,85,0.00,,,0.03,,2013-02-22 20:06:00,
2013-02-22 21:11:00,53.6,26.4,29.53,North,0,0.0,0.0,35,0.00,,,0.03,,2013-02-22 20:11:00,
2013-02-22 21:16:00,53.8,26.6,29.53,North,0,0.0,0.0,35,0.00,,,0.03,,2013-02-22 20:16:00,
2013-02-22 21:21:00,53.6,26.4,29.53,North,0,0.0,0.0,35,0.00,,,0.03,,2013-02-22 20:21:00,
2013-02-22 21:26:00,54.3,49.8,29.55,SE,135,1.3,4.0,85,0.00,,,0.03,,2013-02-22 20:26:00,
2013-02-22 21:31:00,54.5,50.0,29.55,SE,135,4.9,4.9,85,0.00,,,0.03,,2013-02-22 20:31:00,
2013-02-22 21:36:00,54.5,50.0,29.55,SW,225,7.6,12.9,85,0.00,,,0.03,,2013-02-22 20:36:00,
2013-02-22 21:41:00,54.7,50.2,29.55,South,180,9.8,9.8,85,0.00,,,0.03,,2013-02-22 20:41:00,
2013-02-22 21:47:00,54.7,49.8,29.55,SW,225,7.1,8.9,84,0.00,,,0.03,,2013-02-22 20:47:00,
2013-02-22 21:51:00,54.5,49.6,29.55,WSW,247,6.2,9.3,84,0.00,,,0.03,,2013-02-22 20:51:00,
2013-02-22 21:56:00,54.5,49.6,29.55,SW,225,9.8,9.8,84,0.00,,,0.03,,2013-02-22 20:56:00,
2013-02-22 22:01:00,54.3,49.5,29.55,SW,225,8.5,9.8,84,0.00,,,0.03,,2013-02-22 21:01:00,
2013-02-22 22:06:00,54.1,49.3,29.58,SW,225,7.1,8.9,84,0.00,,,0.03,,2013-02-22 21:06:00,
2013-02-22 22:12:00,54.0,48.7,29.58,SW,225,6.7,10.2,83,0.00,,,0.03,,2013-02-22 21:12:00,
2013-02-22 22:17:00,53.8,48.6,29.55,SW,225,8.0,9.8,83,0.00,,,0.03,,2013-02-22 21:17:00,
2013-02-22 22:22:00,53.6,48.6,29.55,SW,225,7.1,9.8,83,0.00,,,0.03,,2013-02-22 21:22:00,
2013-02-22 22:27:00,53.6,48.6,29.55,SW,225,6.7,8.5,83,0.00,,,0.03,,2013-02-22 21:27:00,
2013-02-22 22:32:00,53.6,48.6,29.55,SW,225,6.2,7.6,83,0.00,,,0.03,,2013-02-22 21:32:00,
2013-02-22 22:37:00,53.4,48.4,29.58,SW,225,6.2,11.6,83,0.00,,,0.03,,2013-02-22 21:37:00,
2013-02-22 22:42:00,53.4,48.4,29.58,SW,225,6.7,6.7,83,0.00,,,0.03,,2013-02-22 21:42:00,
2013-02-22 22:47:00,53.4,48.4,29.58,South,180,4.4,4.9,83,0.00,,,0.03,,2013-02-22 21:47:00,
2013-02-22 22:52:00,53.4,48.4,29.58,SW,225,6.7,6.7,83,0.00,,,0.03,,2013-02-22 21:52:00,
2013-02-22 22:57:00,53.2,48.2,29.55,SW,225,5.8,6.2,83,0.00,,,0.03,,2013-02-22 21:57:00,
2013-02-22 23:02:00,53.2,48.2,29.55,SW,225,5.8,9.3,83,0.00,,,0.03,,2013-02-22 22:02:00,
2013-02-22 23:07:00,53.2,48.2,29.58,SW,225,4.9,6.2,83,0.00,,,0.03,,2013-02-22 22:07:00,
2013-02-22 23:12:00,53.1,48.0,29.58,SW,225,4.4,5.8,83,0.00,,,0.03,,2013-02-22 22:12:00,
2013-02-22 23:17:00,53.1,48.2,29.58,SW,225,2.6,3.5,84,0.00,,,0.03,,2013-02-22 22:17:00,
2013-02-22 23:22:00,52.9,47.8,29.58,SW,225,2.2,5.8,83,0.00,,,0.03,,2013-02-22 22:22:00,
2013-02-22 23:27:00,52.9,47.8,29.58,SW,225,2.6,2.6,83,0.00,,,0.03,,2013-02-22 22:27:00,
2013-02-22 23:32:00,52.7,47.7,29.58,SW,225,2.2,4.0,83,0.00,,,0.03,,2013-02-22 22:32:00,
2013-02-22 23:37:00,52.7,47.3,29.61,SW,225,1.7,1.7,82,0.00,,,0.03,,2013-02-22 22:37:00,
2013-02-22 23:42:00,52.7,47.3,29.61,SW,225,2.6,2.6,82,0.00,,,0.03,,2013-02-22 22:42:00,
2013-02-22 23:47:00,52.7,47.3,29.61,SW,225,0.8,0.0,82,0.00,,,0.03,,2013-02-22 22:47:00,
2013-02-22 23:52:00,52.7,47.3,29.61,SW,225,0.8,1.3,82,0.00,,,0.03,,2013-02-22 22:52:00,
2013-02-22 23:57:00,52.5,47.1,29.58,SW,225,0.8,2.6,82,0.00,,,0.03,,2013-02-22 22:57:00,